Simultaneous Nadir Overpasses (SNOs) Predictions

Prediction of SNOs between GOES-15 and TERRA Satellite Orbit:

Table of predicted SNOs for the next 14.0 days since TLE Epoch: 4/23/2022
Index Date Time (GOES-15) GOES-15 Lat,Lon TERRA Lat,Lon Distance(km) Time Diff (sec)
1 04/24/2022 06:50:35 0.15,-128.26 0.35,-127.21 117.96 80
2 04/24/2022 19:09:10 -0.15,-128.30 0.74,-132.38 463.87 80
3 04/26/2022 06:38:21 0.15,-128.22 0.98,-124.26 450.12 80
4 04/26/2022 18:56:56 -0.15,-128.27 0.10,-129.43 131.58 80
5 04/28/2022 18:47:22 -0.15,-128.24 -0.56,-126.48 200.78 80
6 04/29/2022 07:08:45 0.16,-128.18 -0.57,-131.67 396.55 80
7 05/01/2022 06:56:30 0.16,-128.14 0.03,-128.71 64.68 80
8 05/03/2022 06:41:35 0.16,-128.10 0.65,-125.75 266.59 80
9 05/03/2022 19:02:50 -0.17,-128.13 0.42,-130.91 315.72 80
10 05/05/2022 18:53:15 -0.17,-128.09 -0.21,-127.96 14.95 80
